Flag for United Kingdom Weather past 2 weeks in Poole, England, United Kingdom

Now
37 °F

Clear.


Feels Like: 31 °F
Forecast: 41 / 46 °F
Wind: 8 mph from West

Location: Bournemouth Airport

Current Time: Mar 2, 2015 at 5:37:32 AM

Latest Report: Mar 2, 2015 at 5:20 AM


Visibility: 10 mi

Pressure: 29.65 "Hg

Humidity: 81%

Dew point: 32 °F

Location of PooleLocation

Historic Weather in Poole — Graph

°F

Poole temperature yesterday

Maximum temperature yesterday: 52 °F (at 11:50 AM)
Minimum temperature yesterday: 37 °F (at 10:20 PM)
Average temperature yesterday: 46 °F

Past Weeks' High & Low Weather Summary

 TemperatureHumidityPressure
High55 °F (Feb 25, 2:50 PM)100% (Feb 15, 4:50 AM)30.77 "Hg (Feb 15, 4:50 AM)
Low23 °F (Feb 18, 7:50 AM)50% (Feb 24, 2:20 PM)29.30 "Hg (Feb 23, 2:50 PM)
Average44 °F83%29.92 "Hg
* Reported Feb 15 4:50 AM — Mar 1 10:20 PM, Poole, Weather by CustomWeather, © 2015

Note: Actual official high and low records may vary slightly from our data, if they occured in-between our weather recording intervals... More about our weather records

Advertising

Poole weather history for previous 24 hours

 ConditionsComfort  
Time TempWeatherWind HumidityBarometerVisibility
10:20 PM
Sun, Mar 1
37 °FPassing clouds.5 mph93%29.59 "HgN/A
9:50 PM39 °FPassing clouds.9 mph87%29.59 "HgN/A
9:20 PM43 °FPassing clouds.7 mph81%29.56 "HgN/A
8:50 PM43 °FPassing clouds.12 mph81%29.56 "HgN/A
8:20 PM43 °FPassing clouds.12 mph81%29.56 "HgN/A
6:50 PM41 °FPassing clouds.8 mph87%29.53 "HgN/A
6:20 PM41 °FPassing clouds.7 mph93%29.53 "HgN/A
5:50 PM43 °FPassing clouds.12 mph87%29.53 "HgN/A
5:20 PM43 °FScattered clouds.7 mph87%29.50 "HgN/A
4:50 PM41 °FRain. Broken clouds.25 mph87%29.53 "Hg2 mi
4:20 PM50 °FLight rain. Partly sunny.17 mph76%29.50 "HgN/A
3:50 PM50 °FPartly sunny.17 mph76%29.53 "HgN/A
3:20 PM50 °FBroken clouds.16 mph76%29.53 "HgN/A
2:50 PM50 °FScattered clouds.21 mph71%29.56 "HgN/A
2:20 PM50 °FScattered clouds.21 mph71%29.59 "HgN/A
1:20 PM50 °FScattered clouds.20 mph67%29.62 "HgN/A
12:50 PM50 °FScattered clouds.18 mph67%29.62 "HgN/A
12:20 PM50 °FScattered clouds.18 mph62%29.65 "HgN/A
11:50 AM52 °FScattered clouds.18 mph58%29.65 "HgN/A
11:20 AM50 °FScattered clouds.21 mph62%29.68 "HgN/A
10:50 AM50 °FScattered clouds.16 mph67%29.65 "HgN/A
10:20 AM48 °FScattered clouds.21 mph66%29.65 "HgN/A
9:50 AM48 °FPassing clouds.17 mph71%29.65 "HgN/A
9:20 AM46 °FPassing clouds.16 mph76%29.65 "HgN/A
8:50 AM46 °FScattered clouds.18 mph71%29.65 "HgN/A
8:20 AM46 °FPassing clouds.14 mph71%29.65 "HgN/A
7:50 AM45 °FSunny.13 mph76%29.62 "Hg10 mi
7:20 AM45 °FPassing clouds.13 mph76%29.62 "HgN/A
6:50 AM45 °FPassing clouds.23 mph76%29.62 "HgN/A
6:20 AM46 °FPassing clouds.16 mph76%29.59 "HgN/A
5:50 AM45 °FPassing clouds.15 mph81%29.59 "HgN/A
5:20 AM46 °FPassing clouds.15 mph76%29.59 "HgN/A
Weather by CustomWeather, © 2015

See weather overviewHow to use our weather pages